Regional Weather Roundup
Issued by NWS Portland, ME

Home | Current Version | Previous Version | Text Only | Print | Product List | Glossary On
Versions: 1 2 3 4 5 6 7 8 9 10 11 12 13 14 15 16 17 18 19 20 21 22 23 24 25 26 27 28 29 30 31 32 33 34 35 36 37 38 39 40 41 42 43 44 45 46 47 48 49 50
000
ASUS41 KGYX 282010
RWRGYX
WEATHER ROUNDUP FOR MAINE AND NEW HAMPSHIRE
NATIONAL WEATHER SERVICE GRAY ME
400 PM EDT THU MAY 28 2015

MEZ002-005-006-010-012-015-018-020-021-024-026-027-029-282100-
MAINE

CITY           SKY/WX    TMP DP  RH WIND       PRES   REMARKS
PORTLAND       MOSUNNY   78  64  61 S17G23    29.98F
SANFORD        MOSUNNY   82  64  54 S12       30.00F
BAR HARBOR     MOSUNNY   66  63  88 S15       30.03S
WISCASSET      MOSUNNY   72  64  76 S14G22    30.02F
ROCKLAND       SUNNY     68  59  73 S8        30.00F
FRYEBURG       MOSUNNY   82  63  52 SW9G18    30.00F
LEWISTONAUBURN PTSUNNY   75  66  73 SE8       30.00F
AUGUSTA        LGT RAIN  72  67  84 S8G23     30.00F
WATERVILLE     PTSUNNY   75  68  78 S8        29.97F
BANGOR         PTSUNNY   73  66  78 N5        30.01R
GREENVILLE       N/A     68  64  87 CALM      30.03R
MILLINOCKET    PTSUNNY   69  66  90 CALM      30.01S
HOULTON        LGT RAIN  66  64  93 S5        29.98R FOG
PRESQUE ISLE   CLOUDY    75  61  60 SW10      29.96S
FRENCHVILLE    LGT RAIN  62  59  90 N13       29.99R
CARIBOU        CLOUDY    76  63  64 W9        29.94S
$$

NHZ002-005-008-009-011-012-014-282100-
NEW HAMPSHIRE

CITY           SKY/WX    TMP DP  RH WIND       PRES   REMARKS
PORTSMOUTH     PTSUNNY   87  63  44 SW15G24   29.98F
ROCHESTER      MOSUNNY   87  61  41 SW8       29.98F
NASHUA         MOSUNNY   88  61  40 SW14G24   30.04R
MANCHESTER     PTSUNNY   87  59  38 SW17G29   30.00R THUNDER
CONCORD        LGT RAIN  82  63  52 W17G24    30.04R
LACONIA        CLOUDY    72  64  78 SW6       30.02R
PLYMOUTH       FAIR      81  67  63 W5        30.03R
BERLIN         MOSUNNY   75  61  61 NW13      30.05R
WHITEFIELD     PTSUNNY   71  58  63 NW17G30   30.07R
JAFFREY        TSTM      67  63  87 CALM      30.11R FOG
KEENE          CLOUDY    72  66  83 CALM      30.09S
LEBANON        PTSUNNY   79  57  46 W10       30.04R
MT WASHINGTON  FOG       50  50 100 W51G62      N/A  VSB 0
$$

VTZ005-007-008-282100-
VERMONT

CITY           SKY/WX    TMP DP  RH WIND       PRES   REMARKS
MONTPELIER     PTSUNNY   66  58  75 NW18G25   30.13R
BURLINGTON     PTSUNNY   69  53  56 W14G21    30.11R
$$

MAZ007-012-024-CTZ003-RIZ002-NYZ038-NYZ072-282100-
SOUTHERN NEW ENGLAND AND NY

CITY           SKY/WX    TMP DP  RH WIND       PRES   REMARKS
BOSTON         PTSUNNY   82  66  58 S17       30.05S
WORCESTER      PTSUNNY   82  63  52 SW21G31   30.09F
NANTUCKET      CLOUDY    65  58  78 SW16      30.19F
PROVIDENCE     PTSUNNY   78  66  66 S17       30.11F
HARTFORD       PTSUNNY   80  67  64 S15       30.08S
ALBANY         PTSUNNY   77  56  48 NW22G35   30.14R
NEW YORK CITY  PTSUNNY   80  66  62 S13       30.12F
$$

ANZ081-ANZ082-ANZ150-NHZ014-MEZ023>029-282100-
COASTAL MARINE OBSERVATIONS

STATION/POSITION TIME  TEMP    WIND        PRES    WAVE
                       AIR SEA DIR/SP/G            HT/PER
                 (UTC) (F)     (DEG/KT/KT) (MB)    (FT/S)
MOUNT DESERT ROC 2000   52     200/ 20/ 21   N/A
MATINICUS ROCK   2000   53     210/ 22/ 24   N/A
ISLE OF SHOALS   2000   65     170/ 29/ 30   N/A
JEFFREYS LEDGE   1903      50                N/A     4/ 6
CASHES LEDGE BUO 1950   56 51                N/A     5/ 6
GEORGES BANK BUO 1950   59 52  200/ 10/ 12   N/A     4/ 6
$$

.............KEY..............
   WCI - WIND CHILL
   TC  - TEMPERATURE IN CELSIUS
   VSB - VISIBILITY IN MILES
   HX  - HEAT INDEX
   FAIR- INDICATES FEW OR NO CLOUDS BELOW 12,000 FT, WITH NO
         SIGNIFICANT WEATHER AND/OR OBSTRUCTIONS TO VISIBILITY.




USA.gov is the U.S. government's official web portal to all federal, state and local government web resources and services.